Time,TemperatureF,DewpointF,PressureIn,WindDirection,WindDirectionDegrees,WindSpeedMPH,WindSpeedGustMPH,Humidity,HourlyPrecipIn,Conditions,Clouds,dailyrainin,SoftwareType,DateUTC
2013-03-26 00:00:00,40.2,27.0,30.26,North,352,0.0,0.0,59,0.00,,,0.00,Wunderground v.1.15,2013-03-26 06:00:00,
2013-03-26 00:10:00,40.5,26.9,30.26,North,349,0.0,0.0,58,0.00,,,0.00,Wunderground v.1.15,2013-03-26 06:10:00,
2013-03-26 00:15:00,40.5,26.9,30.26,North,349,0.0,0.0,58,0.00,,,0.00,Wunderground v.1.15,2013-03-26 06:15:00,
2013-03-26 00:24:00,40.3,26.7,30.26,North,354,0.0,0.0,58,0.00,,,0.00,Wunderground v.1.15,2013-03-26 06:24:00,
2013-03-26 00:30:00,40.2,26.6,30.26,North,354,0.0,0.0,58,0.00,,,0.00,Wunderground v.1.15,2013-03-26 06:30:00,
2013-03-26 00:40:00,39.8,26.6,30.26,North,354,0.0,0.0,59,0.00,,,0.00,Wunderground v.1.15,2013-03-26 06:40:00,
2013-03-26 00:45:00,39.5,26.8,30.26,North,354,0.0,0.0,60,0.00,,,0.00,Wunderground v.1.15,2013-03-26 06:45:00,
2013-03-26 00:55:00,39.2,26.5,30.26,North,350,0.0,0.0,60,0.00,,,0.00,Wunderground v.1.15,2013-03-26 06:55:00,
2013-03-26 01:00:00,39.1,26.0,30.26,North,356,0.0,0.0,59,0.00,,,0.00,Wunderground v.1.15,2013-03-26 07:00:00,
2013-03-26 01:10:00,39.1,26.4,30.26,North,356,0.0,0.0,60,0.00,,,0.00,Wunderground v.1.15,2013-03-26 07:10:00,
2013-03-26 01:15:00,38.9,26.2,30.26,North,350,0.0,0.0,60,0.00,,,0.00,Wunderground v.1.15,2013-03-26 07:15:00,
2013-03-26 01:25:00,38.8,26.1,30.26,North,349,0.0,0.0,60,0.00,,,0.00,Wunderground v.1.15,2013-03-26 07:25:00,
2013-03-26 01:30:00,38.8,26.5,30.27,North,356,0.0,0.0,61,0.00,,,0.00,Wunderground v.1.15,2013-03-26 07:30:00,
2013-03-26 01:40:00,38.5,26.6,30.27,North,356,0.0,0.0,62,0.00,,,0.00,Wunderground v.1.15,2013-03-26 07:40:00,
2013-03-26 01:45:00,38.2,26.3,30.27,North,356,0.0,0.0,62,0.00,,,0.00,Wunderground v.1.15,2013-03-26 07:45:00,
2013-03-26 01:55:00,37.9,26.0,30.27,North,350,0.0,0.0,62,0.00,,,0.00,Wunderground v.1.15,2013-03-26 07:55:00,
2013-03-26 02:00:00,37.8,26.3,30.27,North,350,0.0,0.0,63,0.00,,,0.00,Wunderground v.1.15,2013-03-26 08:00:00,
2013-03-26 02:10:00,37.6,26.1,30.27,North,350,0.0,0.0,63,0.00,,,0.00,Wunderground v.1.15,2013-03-26 08:10:00,
2013-03-26 02:15:00,37.5,26.4,30.28,North,350,0.0,0.0,64,0.00,,,0.00,Wunderground v.1.15,2013-03-26 08:15:00,
2013-03-26 02:25:00,37.0,26.3,30.28,NNW,347,0.0,0.0,65,0.00,,,0.00,Wunderground v.1.15,2013-03-26 08:25:00,
2013-03-26 02:30:00,37.0,26.3,30.28,North,349,0.0,0.0,65,0.00,,,0.00,Wunderground v.1.15,2013-03-26 08:30:00,
2013-03-26 02:40:00,36.9,26.2,30.28,NNW,347,0.0,0.0,65,0.00,,,0.00,Wunderground v.1.15,2013-03-26 08:40:00,
2013-03-26 02:45:00,36.8,26.1,30.28,NNW,347,0.0,0.0,65,0.00,,,0.00,Wunderground v.1.15,2013-03-26 08:45:00,
2013-03-26 02:55:00,36.5,25.8,30.28,NNW,347,0.0,0.0,65,0.00,,,0.00,Wunderground v.1.15,2013-03-26 08:55:00,
2013-03-26 03:00:00,36.3,26.0,30.29,North,349,0.0,0.0,66,0.00,,,0.00,Wunderground v.1.15,2013-03-26 09:00:00,
2013-03-26 03:10:00,36.2,25.9,30.29,North,349,0.0,0.0,66,0.00,,,0.00,Wunderground v.1.15,2013-03-26 09:10:00,
2013-03-26 03:15:00,35.9,26.0,30.29,North,349,0.0,0.0,67,0.00,,,0.00,Wunderground v.1.15,2013-03-26 09:15:00,
2013-03-26 03:25:00,35.6,26.4,30.29,North,349,0.0,0.0,69,0.00,,,0.00,Wunderground v.1.15,2013-03-26 09:25:00,
2013-03-26 03:30:00,35.3,26.5,30.29,North,349,0.0,0.0,70,0.00,,,0.00,Wunderground v.1.15,2013-03-26 09:30:00,
2013-03-26 03:39:00,35.0,26.2,30.29,North,0,0.0,0.0,70,0.00,,,0.00,Wunderground v.1.15,2013-03-26 09:39:00,
2013-03-26 03:45:00,35.0,25.9,30.29,North,349,0.0,0.0,69,0.00,,,0.00,Wunderground v.1.15,2013-03-26 09:45:00,
2013-03-26 03:55:00,35.2,25.7,30.29,North,349,0.0,0.0,68,0.00,,,0.00,Wunderground v.1.15,2013-03-26 09:55:00,
2013-03-26 04:00:00,35.2,25.7,30.29,North,349,0.0,0.0,68,0.00,,,0.00,Wunderground v.1.15,2013-03-26 10:00:00,
2013-03-26 04:09:00,35.2,25.7,30.29,North,349,0.0,0.0,68,0.00,,,0.00,Wunderground v.1.15,2013-03-26 10:09:00,
2013-03-26 04:15:00,35.0,25.5,30.30,North,352,0.0,0.0,68,0.00,,,0.00,Wunderground v.1.15,2013-03-26 10:15:00,
2013-03-26 04:24:00,35.0,25.5,30.30,North,349,0.0,0.0,68,0.00,,,0.00,Wunderground v.1.15,2013-03-26 10:24:00,
2013-03-26 04:30:00,35.0,25.5,30.30,North,349,0.0,0.0,68,0.00,,,0.00,Wunderground v.1.15,2013-03-26 10:30:00,
2013-03-26 04:40:00,34.9,25.4,30.30,North,349,0.0,0.0,68,0.00,,,0.00,Wunderground v.1.15,2013-03-26 10:40:00,
2013-03-26 04:45:00,34.7,25.2,30.31,North,349,0.0,0.0,68,0.00,,,0.00,Wunderground v.1.15,2013-03-26 10:45:00,
2013-03-26 04:54:00,34.4,25.3,30.31,North,349,0.0,0.0,69,0.00,,,0.00,Wunderground v.1.15,2013-03-26 10:54:00,
2013-03-26 05:00:00,34.3,25.2,30.31,North,349,0.0,0.0,69,0.00,,,0.00,Wunderground v.1.15,2013-03-26 11:00:00,
2013-03-26 05:10:00,34.0,25.2,30.31,North,349,0.0,0.0,70,0.00,,,0.00,Wunderground v.1.15,2013-03-26 11:10:00,
2013-03-26 05:15:00,33.8,25.4,30.32,North,349,0.0,0.0,71,0.00,,,0.00,Wunderground v.1.15,2013-03-26 11:15:00,
2013-03-26 05:25:00,33.4,25.7,30.32,North,349,0.0,0.0,73,0.00,,,0.00,Wunderground v.1.15,2013-03-26 11:25:00,
2013-03-26 05:30:00,33.2,25.8,30.32,North,349,0.0,0.0,74,0.00,,,0.00,Wunderground v.1.15,2013-03-26 11:30:00,
2013-03-26 05:40:00,32.7,25.6,30.32,North,349,0.0,0.0,75,0.00,,,0.00,Wunderground v.1.15,2013-03-26 11:40:00,
2013-03-26 05:45:00,32.4,25.7,30.32,North,349,0.0,0.0,76,0.00,,,0.00,Wunderground v.1.15,2013-03-26 11:45:00,
2013-03-26 05:55:00,31.9,25.8,30.32,North,349,0.0,0.0,78,0.00,,,0.00,Wunderground v.1.15,2013-03-26 11:55:00,
2013-03-26 06:00:00,31.9,25.8,30.33,North,349,0.0,0.0,78,0.00,,,0.00,Wunderground v.1.15,2013-03-26 12:00:00,
2013-03-26 06:10:00,32.1,26.0,30.33,North,349,0.0,0.0,78,0.00,,,0.00,Wunderground v.1.15,2013-03-26 12:10:00,
2013-03-26 06:15:00,32.1,26.0,30.34,North,349,0.0,0.0,78,0.00,,,0.00,Wunderground v.1.15,2013-03-26 12:15:00,
2013-03-26 06:25:00,32.5,26.4,30.34,North,349,0.0,0.0,78,0.00,,,0.00,Wunderground v.1.15,2013-03-26 12:25:00,
2013-03-26 06:30:00,32.9,26.8,30.34,North,349,0.0,0.0,78,0.00,,,0.00,Wunderground v.1.15,2013-03-26 12:30:00,
2013-03-26 06:40:00,33.8,27.0,30.34,North,349,0.0,0.0,76,0.00,,,0.00,Wunderground v.1.15,2013-03-26 12:40:00,
2013-03-26 06:45:00,34.3,27.2,30.34,North,349,0.0,0.0,75,0.00,,,0.00,Wunderground v.1.15,2013-03-26 12:45:00,
2013-03-26 06:55:00,35.2,27.4,30.34,NNW,347,0.0,0.0,73,0.00,,,0.00,Wunderground v.1.15,2013-03-26 12:55:00,
2013-03-26 07:00:00,35.8,27.3,30.34,NNW,347,0.0,0.0,71,0.00,,,0.00,Wunderground v.1.15,2013-03-26 13:00:00,
2013-03-26 07:10:00,36.8,27.2,30.34,North,0,0.0,0.0,68,0.00,,,0.00,Wunderground v.1.15,2013-03-26 13:10:00,
2013-03-26 07:15:00,37.3,27.0,30.35,NW,325,0.0,0.0,66,0.00,,,0.00,Wunderground v.1.15,2013-03-26 13:15:00,
2013-03-26 07:25:00,38.2,27.1,30.35,NNW,339,0.0,1.0,64,0.00,,,0.00,Wunderground v.1.15,2013-03-26 13:25:00,
2013-03-26 07:30:00,38.6,26.7,30.36,North,356,1.0,1.0,62,0.00,,,0.00,Wunderground v.1.15,2013-03-26 13:30:00,
2013-03-26 07:40:00,39.6,26.8,30.36,North,0,0.0,0.0,60,0.00,,,0.00,Wunderground v.1.15,2013-03-26 13:40:00,
2013-03-26 07:45:00,40.1,26.5,30.36,North,0,1.0,1.0,58,0.00,,,0.00,Wunderground v.1.15,2013-03-26 13:45:00,